Regional Weather Roundup
Issued by NWS

Home | Current Version | Previous Version | Text Only | Print | Product List | Glossary On
Versions: 1 2 3 4 5 6 7 8 9 10 11 12 13 14 15 16 17 18 19 20 21 22 23 24 25 26 27 28 29 30 31 32 33 34 35 36 37 38 39 40 41 42 43 44 45 46 47 48 49 50
993
ASUS44 KJAN 151903
RWRMS

MISSISSIPPI HOURLY WEATHER ROUNDUP
NATIONAL WEATHER SERVICE JACKSON MS
200 PM CDT MON SEP 15 2014

NOTE: "FAIR: INDICATES FEW OR NO CLOUDS BELOW 12,000 FEET WITH NO
SIGNIFICANT WEATHER AND/OR OBSTRUCTIONS TO VISIBILITY.

MSZ001>002-007>008-010>013-018>021-025>028-034>036-152000-
NORTHWEST MISSISSIPPI

CITY           SKY/WX    TMP DP  RH WIND       PRES   REMARKS
CLARKSDALE     FAIR      82  64  54 CALM      30.15S
CLEVELAND      FAIR      83  66  56 N3        30.12F HAZE
GREENWOOD      PTSUNNY   87  69  54 N6        30.12F HX  91
GREENVILLE     CLOUDY    83  65  54 NW6       30.13F
GRENADA        FAIR      86  66  51 NW6       30.13F
OLIVE BRANCH   PTSUNNY   79  64  61 CALM      30.14F
OXFORD         FAIR      81  64  57 W7        30.15F
TUNICA         MOCLDY    79  61  53 CALM      30.14F
$$

MSZ003>006-009-014>017-022>024-029>033-037>039-152000-
NORTHEAST MISSISSIPPI

CITY           SKY/WX    TMP DP  RH WIND       PRES   REMARKS
COLUMBUS AFB   PTSUNNY   87  68  52 N7        30.10F HX  91
CORINTH        FAIR      82  63  51 CALM      30.12F
GOLDN TRIANGLE MOSUNNY   90  68  48 W7        30.11F HX  93
STARKVILLE     MOCLDY    86  68  54 NW6       30.11F
TUPELO         PTSUNNY   86  66  51 MISG      30.12F
$$

MSZ040-058-152000-
CENTRAL MISSISSIPPI

CITY           SKY/WX    TMP DP  RH WIND       PRES   REMARKS
JACKSON INTL   PTSUNNY   89  70  53 NW5       30.10F HX  94
JACKSON HAWKNS PTSUNNY   88  71  57 VRB5      30.11F HX  94
MERIDIAN KEY   PTSUNNY   89  69  51 NW7       30.08F HX  93
MERIDIAN NAS   PTSUNNY   90  70  51 VRB3      30.08F HX  95
RAYMOND        MOCLDY    86  82  89 CALM      30.11F HX 105
VICKSBURG      MOSUNNY   90  69  50 NE8       30.10F HX  94
$$

MSZ059>079-152000-
SOUTH MISSISSIPPI

CITY           SKY/WX    TMP DP  RH WIND       PRES   REMARKS
BROOKHAVEN     FAIR      88  73  62 CALM      30.12F HX  96
HATTIESBURG    MOSUNNY   92  72  51 VRB3      30.08F HX  99
MCCOMB         SUNNY     89  69  51 CALM      30.09F HX  93
NATCHEZ        PTSUNNY   88  73  62 E3        30.10F HX  96
PINE BELT      MOSUNNY  N/A N/A N/A N5        30.10F
$$

MSZ080>082-152000-
COASTAL MISSISSIPPI

CITY           SKY/WX    TMP DP  RH WIND       PRES   REMARKS
BAY ST LOUIS   MOSUNNY   90  70  51 E6        30.07F HX  95
BILOXI         MOSUNNY   86  76  71 SE5       30.07F HX  96
PASCAGOULA     PTSUNNY   86  76  71 CALM      30.07F HX  96
GULFPORT       PTSUNNY   88  74  63 E10       30.06F HX  96
$$



USA.gov is the U.S. government's official web portal to all federal, state and local government web resources and services.